Weather History for Harrison, AR

Change the Weather History Date:

Sunday, May 19, 2013

  Actual Average Record
Temperature  
Mean Temperature 77 °F 66 °F  
Max Temperature 86 °F 77 °F 92 °F (1937)
Min Temperature 68 °F 56 °F 39 °F (2002)
Degree Days  
Heating Degree Days 0 2  
Month to date heating degree days 118 60  
Since 1 July heating degree days 3954 3981  
Cooling Degree Days 12 4  
Month to date cooling degree days 54 49  
Year to date cooling degree days 86 86  
Growing Degree Days 26 (Base 50)    
Moisture  
Dew Point 66 °F    
Average Humidity 72    
Maximum Humidity 97    
Minimum Humidity 47    
Precipitation  
Precipitation 0.00 in 0.14 in 2.53 in (1960)
Month to date precipitation 2.99 3.04  
Year to date precipitation 16.33 16.35  
Snow  
Snow 0.00 in 0.00 in - ()
Month to date snowfall 0.1 0.0  
Since 1 July snowfall 4.7 11.5  
Snow Depth 0.00 in    
Sea Level Pressure  
Sea Level Pressure 29.80 in    
Wind  
Wind Speed 13 mph (SSE)    
Max Wind Speed 29 mph    
Max Gust Speed 43 mph    
Visibility 8 miles    
Events      
T = Trace of Precipitation, MM = Missing Value Source: NWS Daily Summary

Daily Weather History Graph

Daily Weather History Graph

Search for Another Location

Airport:

Trip Planner

Search our weather history database for the weather conditions in past years. The results will help you decide how hot, cold, wet, or windy it might be!

Date:

Astronomy

May. 19, 2013 Rise Set
Actual Time 6:03 AM CDT 8:15 PM CDT
Civil Twilight 5:34 AM CDT 8:44 PM CDT
Nautical Twilight 4:58 AM CDT 9:20 PM CDT
Astronomical Twilight 4:20 AM CDT 9:58 PM CDT
Moon 2:30 PM CDT (5/19) 2:16 AM CDT (5/19)
Length of Visible Light 15h 10m
Length of Day
14h 12m
Waxing Gibbous, 65% of the Moon is Illuminated
May 19
Waxing Gibbous
May 24
Full
May 31
Last Quarter
Jun 8
New
Jun 16
First Quarter

Hourly Weather History & Observations

Time (CDT) Temp. Heat Index Dew Point Humidity Pressure Visibility Wind Dir Wind Speed Gust Speed Precip Events Conditions
12:39 AM 69.8 °F - 68.0 °F 94% 29.89 in 2.5 mi Calm Calm - N/A   Clear
12:50 AM 69.8 °F - 68.0 °F 94% 29.88 in 3.0 mi Calm Calm - N/A   Clear
12:53 AM 70.0 °F - 68.0 °F 93% 29.84 in 3.0 mi Calm Calm - N/A   Clear
1:53 AM 72.0 °F - 68.0 °F 87% 29.82 in 8.0 mi SSE 6.9 mph - N/A   Clear
2:53 AM 71.1 °F - 68.0 °F 90% 29.84 in 7.0 mi NW 4.6 mph - N/A   Partly Cloudy
3:53 AM 70.0 °F - 66.9 °F 90% 29.81 in 7.0 mi Variable 3.5 mph - N/A   Clear
4:53 AM 70.0 °F - 68.0 °F 93% 29.81 in 7.0 mi SSE 6.9 mph - N/A   Clear
5:53 AM 71.1 °F - 66.9 °F 87% 29.81 in 7.0 mi SSE 5.8 mph - N/A   Clear
6:53 AM 71.6 °F - 68.0 °F 88% 29.87 in 6.0 mi SSE 8.1 mph - N/A   Clear
7:53 AM 73.0 °F - 69.1 °F 87% 29.83 in 7.0 mi SSE 8.1 mph - N/A   Clear
8:53 AM 73.9 °F - 68.0 °F 82% 29.85 in 9.0 mi SSE 4.6 mph - N/A   Clear
9:53 AM 77.0 °F - 66.0 °F 69% 29.84 in 10.0 mi SE 5.8 mph - N/A   Clear
10:53 AM 81.0 °F 82.2 °F 63.0 °F 54% 29.82 in 10.0 mi SSE 13.8 mph - N/A   Clear
11:53 AM 84.0 °F 84.9 °F 63.0 °F 49% 29.81 in 10.0 mi SE 10.4 mph - N/A   Clear
12:53 PM 82.9 °F 83.2 °F 60.1 °F 46% 29.80 in 10.0 mi South 10.4 mph - N/A   Clear
1:53 PM 84.2 °F 85.0 °F 62.6 °F 48% 29.83 in 10.0 mi SSE 13.8 mph - N/A   Clear
2:53 PM 84.2 °F 85.0 °F 62.6 °F 48% 29.81 in 10.0 mi South 19.6 mph 25.3 mph N/A   Clear
3:53 PM 84.9 °F 85.9 °F 63.0 °F 48% 29.75 in 10.0 mi SSE 19.6 mph 27.6 mph N/A   Clear
4:53 PM 84.9 °F 86.1 °F 64.0 °F 49% 29.72 in 10.0 mi SSE 20.7 mph 26.5 mph N/A   Clear
5:53 PM 82.9 °F 85.0 °F 66.0 °F 56% 29.70 in 10.0 mi SSE 20.7 mph 26.5 mph N/A   Clear
6:53 PM 81.0 °F 83.0 °F 66.0 °F 60% 29.71 in 10.0 mi SSE 15.0 mph 21.9 mph N/A   Clear
7:53 PM 78.1 °F - 64.0 °F 62% 29.71 in 10.0 mi SE 15.0 mph 21.9 mph N/A   Clear
8:53 PM 78.1 °F - 64.0 °F 62% 29.72 in 10.0 mi South 16.1 mph 24.2 mph N/A   Clear
9:53 PM 77.0 °F - 64.9 °F 66% 29.75 in 10.0 mi South 15.0 mph 25.3 mph N/A   Clear
10:53 PM 77.0 °F - 64.9 °F 66% 29.75 in 10.0 mi South 15.0 mph 21.9 mph N/A   Partly Cloudy
11:53 PM 75.9 °F - 66.0 °F 71% 29.72 in 10.0 mi South 20.7 mph 34.5 mph N/A   Clear